Tracking 35275 objects as of 8-Sep-2026
HD Live streaming from Space Station
objects crossing your sky now

ONEWEB-0598

Track ONEWEB-0598 now!
10-day predictions
ONEWEB-0598 is classified as:


NORAD ID: 55154
Int'l Code: 2023-004Q
Launch date: January 10, 2023
Source: United Kingdom (UK)
Launch site: AIR FORCE WESTERN TEST RANGE (AFWTR)
Your satellite tracking list
Your tracking list is empty




NASA's NSSDC Master Catalog

Two Line Element Set (TLE):
1 55154U 23004Q   26250.78967626 -.00000001  00000-0 -37934-4 0  9998
2 55154  87.8956   4.6419 0001474  77.0876 283.0417 13.11414726176728
Source of the keplerian elements: AFSPC